STARLINK-33887 (63680 NORAD) Tracking and Keplerian Element Data

This shows tracking and keplerian element data for the satellite.

Feedback or suggestion? Click here.




ElementValue
Catalog63680
NameSTARLINK-33887
Epoch Orbit3654
Epoch Day352.66627789
Epoch Year2025
RAAN128.0415
Inclination42.9985
Eccentricity0.0001045
Argument of Perigee267.6964
Mean Anonmoly92.3768
Mean Motion15.27600327
Decay Rate0.00019895
L11 63680U 25085S 25352.66627789 .00019895 00000+0 73009-3 0 9994
L22 63680 42.9985 128.0415 0001045 267.6964 92.3768 15.27600327 36549



Live tracking and technical data element details for STARLINK-33887 (NORAD 63680). STARLINK-33887 can be tracked NOW for your location showing map with azimuth and elevation plus other details from your city location.







IsCatalogInMostPopularTable: catalog: 63680, numindb: 2
Update: records affected: 1



GetName: 63680 STARLINK-33887

Hit Count: updated at: Sat, 07 Feb 2026 08:40:02 GMT